Location: Recife
(8.0585°S, 34.8848°W)
Time: 13:11:47
(UTC-03:00)

Explorer 11/Cluster Stage 4 - All Passes

Search period start: 14 April 2026 00:00
Search period end: 24 April 2026 00:00
Orbit: 463 x 1174 km, 28.8° (Epoch: 14 April)

Date Brightness Start Highest point End Pass type
(mag) Time Alt. Az. Time Alt. Az. Time Alt. Az.
14 Apr - 03:48:52 10° S 03:49:58 11° SSE 03:51:07 10° SE visible
14 Apr - 05:33:04 10° SW 05:37:40 46° SSE 05:43:19 10° ENE daylight
14 Apr - 07:20:11 10° W 07:25:25 43° NNW 07:31:45 10° NE daylight
14 Apr - 09:11:11 10° NW 09:13:55 13° NNW 09:16:47 10° N daylight
14 Apr - 18:20:22 10° NNW 18:24:37 20° NNE 18:28:20 10° ENE visible
14 Apr - 20:07:12 10° WNW 20:12:23 87° SW 20:16:38 10° ESE visible
14 Apr - 21:57:09 10° WSW 21:59:44 16° SSW 22:02:09 10° SSE night (unlit)
15 Apr - 05:08:43 10° SW 05:13:05 45° SSE 05:18:23 10° ENE daylight
15 Apr - 06:55:50 10° W 07:00:45 40° NNW 07:06:42 10° NE daylight
15 Apr - 08:47:11 10° NW 08:49:11 11° NNW 08:51:17 10° N daylight
15 Apr - 17:55:15 10° NNW 18:00:00 22° NNE 18:04:05 10° ENE visible
15 Apr - 19:42:19 10° WNW 19:47:51 85° SSW 19:52:18 10° ESE visible
15 Apr - 21:32:22 10° WSW 21:35:14 16° SSW 21:37:51 10° SSE night (unlit)
16 Apr - 04:44:24 10° SW 04:48:31 44° SSE 04:53:30 10° ENE visible
16 Apr - 06:31:30 10° W 06:36:06 37° NNW 06:41:40 10° NE daylight
16 Apr - 08:23:48 10° NNW 08:24:30 10° NNW 08:25:12 10° NNW daylight
16 Apr - 17:30:09 10° NNW 17:35:20 24° NNE 17:39:49 10° E visible
16 Apr - 19:17:23 10° WNW 19:23:15 83° SSW 19:27:58 10° ESE visible
16 Apr - 21:07:33 10° WSW 21:10:43 17° SSW 21:13:34 10° SSE night (unlit)
17 Apr - 04:20:04 10° SW 04:23:59 44° SSE 04:28:39 10° ENE visible
17 Apr - 06:07:12 10° W 06:11:30 34° NNW 06:16:39 10° NE daylight
17 Apr - 17:05:03 10° NNW 17:10:38 26° NNE 17:15:28 10° E daylight
17 Apr - 18:52:25 10° WNW 18:58:38 81° SSW 19:03:37 10° ESE visible
17 Apr - 20:42:40 10° WSW 20:46:11 18° SSW 20:49:18 10° SSE visible
18 Apr - 03:55:44 10° SW 03:59:29 43° SSE 04:03:52 10° ENE visible
18 Apr - 05:42:55 10° W 05:46:55 32° NNW 05:51:40 10° NE daylight
18 Apr - 16:39:56 10° NNW 16:45:54 28° NNE 16:51:05 10° E daylight
18 Apr - 18:27:25 10° WNW 18:33:58 80° SSW 18:39:14 10° ESE visible
18 Apr - 20:17:45 10° WSW 20:21:36 19° SSW 20:25:01 10° SSE visible
19 Apr - 03:31:23 10° SW 03:35:00 43° SSE 03:39:08 10° ENE visible
19 Apr - 05:18:40 10° W 05:22:22 29° NNW 05:26:43 10° NNE daylight
19 Apr - 16:14:50 10° NNW 16:21:07 30° NNE 16:26:39 10° E daylight
19 Apr - 18:02:25 10° WNW 18:09:15 79° SSW 18:14:50 10° ESE visible
19 Apr - 19:52:47 10° WSW 19:57:01 21° SSW 20:00:43 10° SSE visible
20 Apr - 03:07:01 10° SW 03:10:32 43° SSE 03:14:27 10° ENE visible
20 Apr - 04:54:24 10° W 04:57:51 26° NNW 05:01:48 10° NNE visible
20 Apr - 15:49:46 10° NNW 15:56:18 32° NNE 16:02:09 10° E daylight
20 Apr - 17:37:23 10° WNW 17:44:30 78° SSW 17:50:23 10° ESE visible
20 Apr - 19:27:47 10° WSW 19:32:23 22° SSW 19:36:23 10° SSE visible
21 Apr - 02:42:36 10° SW 02:46:05 44° SSE 02:49:50 10° ENE visible
21 Apr - 04:30:08 10° W 04:33:21 24° NNW 04:36:56 10° NNE visible
21 Apr - 15:24:43 10° NNW 15:31:27 33° NNE 15:37:36 10° E daylight
21 Apr - 17:12:22 10° WNW 17:19:43 77° SSW 17:25:53 10° ESE daylight
21 Apr - 19:02:46 10° WSW 19:07:43 23° SSW 19:12:02 10° SSE visible
22 Apr - 02:18:10 10° SW 02:21:38 45° SSE 02:25:15 10° ENE visible
22 Apr - 04:05:53 10° W 04:08:51 22° NNW 04:12:07 10° NNE visible
22 Apr - 14:59:42 10° NNW 15:06:35 34° NNE 15:13:00 10° E daylight
22 Apr - 16:47:20 10° WNW 16:54:52 76° SSW 17:01:21 10° SE daylight
22 Apr - 18:37:44 10° WSW 18:43:02 24° SSW 18:47:38 10° SSE visible
23 Apr - 01:53:41 10° SW 01:57:12 47° SSE 02:00:44 10° ENE night (unlit)
23 Apr - 03:41:36 10° WNW 03:44:23 20° NNW 03:47:21 10° NNE visible
23 Apr - 12:52:53 10° NNE 12:53:01 10° NNE 12:53:09 10° NNE daylight
23 Apr - 14:34:43 10° NNW 14:41:41 36° NNE 14:48:19 10° E daylight
23 Apr - 16:22:19 10° WNW 16:30:01 76° SSW 16:36:46 10° SE daylight
23 Apr - 18:12:41 10° WSW 18:18:17 25° SSW 18:23:12 10° SSE visible
23 Apr - 23:44:04 10° S 23:45:02 11° SSE 23:45:57 10° SSE night (unlit)
